Time,TemperatureF,DewpointF,PressureIn,WindDirection,WindDirectionDegrees,WindSpeedMPH,WindSpeedGustMPH,Humidity,HourlyPrecipIn,Conditions,Clouds,dailyrainin,SoftwareType,DateUTC
2013-07-06 00:01:00,74.1,62.9,29.17,SW,225,0.0,0.0,68,0.00,,---,0.00,VWS V13.01,2013-07-06 04:01:00,
2013-07-06 00:02:00,74.1,62.9,29.17,SW,225,0.0,0.0,68,0.00,,---,0.00,VWS V13.01,2013-07-06 04:02:00,
2013-07-06 00:16:00,74.1,62.9,29.17,SW,225,0.0,0.0,68,0.00,,---,0.00,VWS V13.01,2013-07-06 04:16:00,
2013-07-06 00:17:00,74.1,62.9,29.17,SW,225,0.0,0.0,68,0.00,,---,0.00,VWS V13.01,2013-07-06 04:17:00,
2013-07-06 00:22:00,74.1,62.5,29.17,SW,225,0.0,0.0,67,0.00,,---,0.00,VWS V13.01,2013-07-06 04:22:00,
2013-07-06 00:27:00,74.1,62.5,29.17,SW,225,0.0,0.0,67,0.00,,---,0.00,VWS V13.01,2013-07-06 04:27:00,
2013-07-06 00:32:00,74.1,62.5,29.17,SW,225,0.0,0.0,67,0.00,,---,0.00,VWS V13.01,2013-07-06 04:32:00,
2013-07-06 00:37:00,74.1,62.5,29.17,SW,225,0.0,0.0,67,0.00,,---,0.00,VWS V13.01,2013-07-06 04:37:00,
2013-07-06 00:42:00,74.1,62.5,29.17,SW,225,0.0,0.0,67,0.00,,---,0.00,VWS V13.01,2013-07-06 04:42:00,
2013-07-06 00:47:00,74.1,62.0,29.17,SW,225,0.0,0.0,66,0.00,,---,0.00,VWS V13.01,2013-07-06 04:47:00,
2013-07-06 00:52:00,74.1,62.0,29.17,SW,225,0.0,0.0,66,0.00,,---,0.00,VWS V13.01,2013-07-06 04:52:00,
2013-07-06 00:58:00,74.1,62.0,29.17,SW,225,0.0,0.0,66,0.00,,---,0.00,VWS V13.01,2013-07-06 04:58:00,
2013-07-06 01:03:00,74.1,62.0,29.17,SW,225,0.0,0.0,66,0.00,,---,0.00,VWS V13.01,2013-07-06 05:03:00,
2013-07-06 01:08:00,74.1,62.0,29.17,SW,225,0.0,0.0,66,0.00,,---,0.00,VWS V13.01,2013-07-06 05:08:00,
2013-07-06 01:13:00,73.8,62.5,29.17,SW,225,0.0,0.0,68,0.00,,---,0.00,VWS V13.01,2013-07-06 05:13:00,
2013-07-06 01:18:00,73.8,62.5,29.17,SW,225,0.0,0.0,68,0.00,,---,0.00,VWS V13.01,2013-07-06 05:18:00,
2013-07-06 01:23:00,73.2,62.5,29.17,SW,225,0.0,0.0,69,0.00,,---,0.00,VWS V13.01,2013-07-06 05:23:00,
2013-07-06 01:28:00,73.0,62.3,29.17,SW,225,0.0,0.0,69,0.00,,---,0.00,VWS V13.01,2013-07-06 05:28:00,
2013-07-06 01:33:00,72.9,62.5,29.17,SW,225,0.0,0.0,70,0.00,,---,0.00,VWS V13.01,2013-07-06 05:33:00,
2013-07-06 01:38:00,72.5,62.6,29.17,SW,225,0.0,0.0,71,0.00,,---,0.00,VWS V13.01,2013-07-06 05:38:00,
2013-07-06 01:43:00,72.3,62.8,29.17,SW,225,0.0,0.0,72,0.00,,---,0.00,VWS V13.01,2013-07-06 05:43:00,
2013-07-06 01:48:00,72.1,63.4,29.17,SW,225,0.0,0.0,74,0.00,,---,0.00,VWS V13.01,2013-07-06 05:48:00,
2013-07-06 01:53:00,72.1,63.4,29.17,SW,225,0.0,0.0,74,0.00,,---,0.00,VWS V13.01,2013-07-06 05:53:00,
2013-07-06 01:59:00,72.0,63.6,29.17,SW,225,0.0,0.0,75,0.00,,---,0.00,VWS V13.01,2013-07-06 05:59:00,
2013-07-06 02:04:00,71.8,63.8,29.17,SW,225,0.0,0.0,76,0.00,,---,0.00,VWS V13.01,2013-07-06 06:04:00,
2013-07-06 02:09:00,71.8,63.8,29.17,SW,225,0.0,0.0,76,0.00,,---,0.00,VWS V13.01,2013-07-06 06:09:00,
2013-07-06 02:14:00,71.6,63.6,29.17,SW,225,0.0,0.0,76,0.00,,---,0.00,VWS V13.01,2013-07-06 06:14:00,
2013-07-06 02:19:00,71.8,63.8,29.17,SW,225,0.0,0.0,76,0.00,,---,0.00,VWS V13.01,2013-07-06 06:19:00,
2013-07-06 02:24:00,72.0,64.0,29.17,SW,225,0.0,0.0,76,0.00,,---,0.00,VWS V13.01,2013-07-06 06:24:00,
2013-07-06 02:29:00,72.0,63.6,29.17,SW,225,0.0,0.0,75,0.00,,---,0.00,VWS V13.01,2013-07-06 06:29:00,
2013-07-06 02:34:00,72.0,63.6,29.17,SW,225,0.0,0.0,75,0.00,,---,0.00,VWS V13.01,2013-07-06 06:34:00,
2013-07-06 02:39:00,72.0,63.6,29.17,SW,225,0.0,0.0,75,0.00,,---,0.00,VWS V13.01,2013-07-06 06:39:00,
2013-07-06 02:44:00,72.0,63.2,29.17,SW,225,0.0,0.0,74,0.00,,---,0.00,VWS V13.01,2013-07-06 06:44:00,
2013-07-06 02:49:00,71.8,63.1,29.17,SW,225,0.0,0.0,74,0.00,,---,0.00,VWS V13.01,2013-07-06 06:49:00,
2013-07-06 02:54:00,71.8,63.1,29.17,SW,225,0.0,0.0,74,0.00,,---,0.00,VWS V13.01,2013-07-06 06:54:00,
2013-07-06 02:59:00,71.6,62.9,29.17,SW,225,0.0,0.0,74,0.00,,---,0.00,VWS V13.01,2013-07-06 06:59:00,
2013-07-06 03:05:00,71.4,63.1,29.17,SW,225,0.0,0.0,75,0.00,,---,0.00,VWS V13.01,2013-07-06 07:05:00,
2013-07-06 03:10:00,71.4,63.1,29.17,SW,225,0.0,0.0,75,0.00,,---,0.00,VWS V13.01,2013-07-06 07:10:00,
2013-07-06 03:15:00,71.1,63.1,29.17,SW,225,0.0,0.0,76,0.00,,---,0.00,VWS V13.01,2013-07-06 07:15:00,
2013-07-06 03:20:00,71.1,63.5,29.17,SW,225,0.0,0.0,77,0.00,,---,0.00,VWS V13.01,2013-07-06 07:20:00,
2013-07-06 03:25:00,71.1,63.5,29.17,SW,225,0.0,0.0,77,0.00,,---,0.00,VWS V13.01,2013-07-06 07:25:00,
2013-07-06 03:30:00,71.1,63.5,29.17,SW,225,0.0,0.0,77,0.00,,---,0.00,VWS V13.01,2013-07-06 07:30:00,
2013-07-06 03:35:00,71.1,63.5,29.17,SW,225,0.0,0.0,77,0.00,,---,0.00,VWS V13.01,2013-07-06 07:35:00,
2013-07-06 03:40:00,71.1,63.5,29.17,SW,225,0.0,0.0,77,0.00,,---,0.00,VWS V13.01,2013-07-06 07:40:00,
2013-07-06 03:45:00,70.9,63.3,29.17,SW,225,0.0,0.0,77,0.00,,---,0.00,VWS V13.01,2013-07-06 07:45:00,
2013-07-06 03:50:00,70.9,63.3,29.17,SW,225,0.0,0.0,77,0.00,,---,0.00,VWS V13.01,2013-07-06 07:50:00,
2013-07-06 03:55:00,70.9,63.7,29.17,SW,225,0.0,0.0,78,0.00,,---,0.00,VWS V13.01,2013-07-06 07:55:00,
2013-07-06 04:00:00,70.9,63.7,29.17,SW,225,0.0,0.0,78,0.00,,---,0.00,VWS V13.01,2013-07-06 08:00:00,
2013-07-06 04:05:00,70.9,63.7,29.17,SW,225,0.0,0.0,78,0.00,,---,0.00,VWS V13.01,2013-07-06 08:05:00,
2013-07-06 04:10:00,71.1,63.9,29.17,SW,225,0.0,0.0,78,0.00,,---,0.00,VWS V13.01,2013-07-06 08:10:00,
2013-07-06 04:16:00,71.1,63.9,29.17,SW,225,0.0,0.0,78,0.00,,---,0.00,VWS V13.01,2013-07-06 08:16:00,
2013-07-06 04:21:00,70.9,63.7,29.17,SW,225,0.0,0.0,78,0.00,,---,0.00,VWS V13.01,2013-07-06 08:21:00,
2013-07-06 04:26:00,70.9,63.7,29.17,SW,225,0.0,0.0,78,0.00,,---,0.00,VWS V13.01,2013-07-06 08:26:00,
2013-07-06 04:31:00,70.7,63.5,29.17,SW,225,0.0,0.0,78,0.00,,---,0.00,VWS V13.01,2013-07-06 08:31:00,
2013-07-06 04:36:00,70.7,63.5,29.17,SW,225,0.0,0.0,78,0.00,,---,0.00,VWS V13.01,2013-07-06 08:36:00,
2013-07-06 04:41:00,70.9,63.7,29.17,SW,225,0.0,0.0,78,0.00,,---,0.00,VWS V13.01,2013-07-06 08:41:00,
2013-07-06 04:46:00,70.7,63.9,29.17,SW,225,0.0,0.0,79,0.00,,---,0.00,VWS V13.01,2013-07-06 08:46:00,
2013-07-06 04:51:00,70.7,63.9,29.17,SW,225,0.0,0.0,79,0.00,,---,0.00,VWS V13.01,2013-07-06 08:51:00,
2013-07-06 04:56:00,70.7,63.9,29.17,SW,225,0.0,0.0,79,0.00,,---,0.00,VWS V13.01,2013-07-06 08:56:00,
2013-07-06 05:01:00,70.9,64.1,29.17,SW,225,0.0,0.0,79,0.00,,---,0.00,VWS V13.01,2013-07-06 09:01:00,
2013-07-06 05:06:00,70.7,63.9,29.17,SW,225,0.0,0.0,79,0.00,,---,0.00,VWS V13.01,2013-07-06 09:06:00,
2013-07-06 05:11:00,70.7,63.9,29.17,SW,225,0.0,0.0,79,0.00,,---,0.00,VWS V13.01,2013-07-06 09:11:00,
2013-07-06 05:16:00,70.7,63.9,29.17,SW,225,0.0,0.0,79,0.00,,---,0.00,VWS V13.01,2013-07-06 09:16:00,
2013-07-06 05:21:00,70.5,63.7,29.17,SW,225,0.0,0.0,79,0.00,,---,0.00,VWS V13.01,2013-07-06 09:21:00,
2013-07-06 05:26:00,70.3,63.5,29.17,SW,225,0.0,0.0,79,0.00,,---,0.00,VWS V13.01,2013-07-06 09:26:00,
2013-07-06 05:32:00,70.2,63.3,29.17,SW,225,0.0,0.0,79,0.00,,---,0.00,VWS V13.01,2013-07-06 09:32:00,
2013-07-06 05:37:00,70.2,63.3,29.17,SW,225,0.0,0.0,79,0.00,,---,0.00,VWS V13.01,2013-07-06 09:37:00,
2013-07-06 05:42:00,70.0,63.2,29.17,SW,225,0.0,0.0,79,0.00,,---,0.00,VWS V13.01,2013-07-06 09:42:00,
2013-07-06 05:47:00,70.2,63.7,29.17,SW,225,0.0,0.0,80,0.00,,---,0.00,VWS V13.01,2013-07-06 09:47:00,
2013-07-06 05:52:00,70.2,63.7,29.17,SW,225,0.0,0.0,80,0.00,,---,0.00,VWS V13.01,2013-07-06 09:52:00,
2013-07-06 05:57:00,70.2,63.7,29.17,SW,225,0.0,0.0,80,0.00,,---,0.00,VWS V13.01,2013-07-06 09:57:00,
2013-07-06 06:02:00,70.3,63.9,29.17,SW,225,0.0,0.0,80,0.00,,---,0.00,VWS V13.01,2013-07-06 10:02:00,
2013-07-06 06:07:00,70.3,63.9,29.17,SW,225,0.0,0.0,80,0.00,,---,0.00,VWS V13.01,2013-07-06 10:07:00,
2013-07-06 06:12:00,70.5,64.1,29.17,SW,225,0.0,0.0,80,0.00,,---,0.00,VWS V13.01,2013-07-06 10:12:00,
2013-07-06 06:17:00,70.7,64.2,29.17,SW,225,0.0,0.0,80,0.00,,---,0.00,VWS V13.01,2013-07-06 10:17:00,
2013-07-06 06:22:00,70.9,64.4,29.17,SW,225,0.0,0.0,80,0.00,,---,0.00,VWS V13.01,2013-07-06 10:22:00,
2013-07-06 06:27:00,70.9,64.4,29.17,SW,225,0.0,0.0,80,0.00,,---,0.00,VWS V13.01,2013-07-06 10:27:00,
2013-07-06 06:32:00,71.1,64.6,29.17,SW,225,0.0,0.0,80,0.00,,---,0.00,VWS V13.01,2013-07-06 10:32:00,
2013-07-06 06:37:00,71.1,64.6,29.17,SW,225,0.0,0.0,80,0.00,,---,0.00,VWS V13.01,2013-07-06 10:37:00,
2013-07-06 06:42:00,71.2,64.8,29.17,SW,225,0.0,0.0,80,0.00,,---,0.00,VWS V13.01,2013-07-06 10:42:00,
2013-07-06 06:48:00,71.2,64.8,29.20,SW,225,0.0,0.0,80,0.00,,---,0.00,VWS V13.01,2013-07-06 10:48:00,
2013-07-06 06:53:00,71.2,64.8,29.20,SW,225,0.0,0.0,80,0.00,,---,0.00,VWS V13.01,2013-07-06 10:53:00,
2013-07-06 06:58:00,71.4,64.9,29.20,SW,225,0.0,0.0,80,0.00,,---,0.00,VWS V13.01,2013-07-06 10:58:00,
2013-07-06 07:03:00,71.4,64.9,29.20,SW,225,0.0,0.0,80,0.00,,---,0.00,VWS V13.01,2013-07-06 11:03:00,
2013-07-06 07:08:00,71.4,64.9,29.20,SW,225,0.0,0.0,80,0.00,,---,0.00,VWS V13.01,2013-07-06 11:08:00,
2013-07-06 07:13:00,71.4,64.9,29.20,SW,225,0.0,0.0,80,0.00,,---,0.00,VWS V13.01,2013-07-06 11:13:00,
2013-07-06 07:18:00,71.4,64.9,29.20,SW,225,0.0,0.0,80,0.00,,---,0.00,VWS V13.01,2013-07-06 11:18:00,
2013-07-06 07:23:00,71.6,65.1,29.20,SW,225,0.0,0.0,80,0.00,,---,0.00,VWS V13.01,2013-07-06 11:23:00,
2013-07-06 07:28:00,71.8,65.3,29.20,SW,225,0.0,0.0,80,0.00,,---,0.00,VWS V13.01,2013-07-06 11:28:00,
2013-07-06 07:33:00,72.0,65.5,29.20,SW,225,0.0,0.0,80,0.00,,---,0.00,VWS V13.01,2013-07-06 11:33:00,
2013-07-06 07:38:00,72.1,65.6,29.20,SW,225,0.0,0.0,80,0.00,,---,0.00,VWS V13.01,2013-07-06 11:38:00,
2013-07-06 07:43:00,72.3,65.8,29.20,SW,225,0.0,0.0,80,0.00,,---,0.00,VWS V13.01,2013-07-06 11:43:00,
2013-07-06 07:48:00,72.7,66.2,29.20,SW,225,0.0,0.0,80,0.00,,---,0.00,VWS V13.01,2013-07-06 11:48:00,
2013-07-06 07:54:00,72.9,66.0,29.20,SW,225,0.0,0.0,79,0.00,,---,0.00,VWS V13.01,2013-07-06 11:54:00,
2013-07-06 07:59:00,73.0,66.2,29.20,SW,225,0.0,0.0,79,0.00,,---,0.00,VWS V13.01,2013-07-06 11:59:00,
2013-07-06 08:04:00,73.0,66.2,29.20,SW,225,0.0,0.0,79,0.00,,---,0.00,VWS V13.01,2013-07-06 12:04:00,
2013-07-06 08:09:00,73.2,66.3,29.20,SW,225,0.0,0.0,79,0.00,,---,0.00,VWS V13.01,2013-07-06 12:09:00,
2013-07-06 08:14:00,73.2,66.3,29.20,SW,225,0.0,0.0,79,0.00,,---,0.00,VWS V13.01,2013-07-06 12:14:00,
2013-07-06 08:19:00,73.2,66.3,29.20,SW,225,0.0,0.0,79,0.00,,---,0.00,VWS V13.01,2013-07-06 12:19:00,
2013-07-06 08:24:00,73.6,66.7,29.20,SW,225,0.0,0.0,79,0.00,,---,0.00,VWS V13.01,2013-07-06 12:24:00,
2013-07-06 08:29:00,73.8,66.8,29.20,SW,225,0.0,0.0,79,0.00,,---,0.00,VWS V13.01,2013-07-06 12:29:00,
2013-07-06 08:34:00,73.9,66.7,29.20,SW,225,0.0,0.0,78,0.00,,---,0.00,VWS V13.01,2013-07-06 12:34:00,
2013-07-06 08:39:00,74.1,66.8,29.20,SW,225,0.0,0.0,78,0.00,,---,0.00,VWS V13.01,2013-07-06 12:39:00,
2013-07-06 08:44:00,74.1,66.8,29.20,SW,225,0.0,0.0,78,0.00,,---,0.00,VWS V13.01,2013-07-06 12:44:00,
2013-07-06 08:49:00,74.3,67.0,29.20,SW,225,0.0,0.0,78,0.00,,---,0.00,VWS V13.01,2013-07-06 12:49:00,
2013-07-06 08:54:00,74.5,67.2,29.20,SW,225,0.0,0.0,78,0.00,,---,0.00,VWS V13.01,2013-07-06 12:54:00,
2013-07-06 08:56:00,74.5,67.2,29.20,SW,225,0.0,0.0,78,0.00,,---,0.00,VWS V13.01,2013-07-06 12:56:00,
2013-07-06 09:02:00,74.7,67.0,29.20,SW,225,0.0,0.0,77,0.00,,---,0.00,VWS V13.01,2013-07-06 13:02:00,
2013-07-06 09:07:00,74.8,67.2,29.20,SW,225,0.0,0.0,77,0.00,,---,0.00,VWS V13.01,2013-07-06 13:07:00,
2013-07-06 09:12:00,75.2,66.7,29.20,SW,225,0.0,0.0,75,0.00,,---,0.00,VWS V13.01,2013-07-06 13:12:00,
2013-07-06 09:17:00,75.4,66.5,29.20,SW,225,0.0,0.0,74,0.00,,---,0.00,VWS V13.01,2013-07-06 13:17:00,
2013-07-06 09:22:00,75.7,66.1,29.20,SW,225,0.0,0.0,72,0.00,,---,0.00,VWS V13.01,2013-07-06 13:22:00,
2013-07-06 09:27:00,76.1,66.0,29.20,SW,225,0.0,0.0,71,0.00,,---,0.00,VWS V13.01,2013-07-06 13:27:00,
2013-07-06 09:32:00,76.1,66.0,29.20,SW,225,0.0,0.0,71,0.00,,---,0.00,VWS V13.01,2013-07-06 13:32:00,
2013-07-06 09:37:00,76.1,66.0,29.20,SW,225,0.0,0.0,71,0.00,,---,0.00,VWS V13.01,2013-07-06 13:37:00,
2013-07-06 09:42:00,77.2,64.5,29.20,SW,225,0.0,0.0,65,0.00,,---,0.00,VWS V13.01,2013-07-06 13:42:00,
2013-07-06 09:47:00,77.4,64.2,29.20,SW,225,0.0,0.0,64,0.00,,---,0.00,VWS V13.01,2013-07-06 13:47:00,
2013-07-06 09:52:00,77.9,64.8,29.20,SW,225,0.0,0.0,64,0.00,,---,0.00,VWS V13.01,2013-07-06 13:52:00,
2013-07-06 09:57:00,78.4,63.9,29.20,SW,225,0.0,0.0,61,0.00,,---,0.00,VWS V13.01,2013-07-06 13:57:00,
2013-07-06 10:02:00,78.6,64.1,29.20,SW,225,0.0,0.0,61,0.00,,---,0.00,VWS V13.01,2013-07-06 14:02:00,
2013-07-06 10:08:00,79.0,63.4,29.20,SW,225,0.0,0.0,59,0.00,,---,0.00,VWS V13.01,2013-07-06 14:08:00,
2013-07-06 10:13:00,79.5,63.0,29.20,SW,225,0.0,0.0,57,0.00,,---,0.00,VWS V13.01,2013-07-06 14:13:00,
2013-07-06 10:18:00,79.9,63.8,29.20,SW,225,0.0,0.0,58,0.00,,---,0.00,VWS V13.01,2013-07-06 14:18:00,
2013-07-06 10:23:00,79.9,61.8,29.20,SW,225,0.0,0.0,54,0.00,,---,0.00,VWS V13.01,2013-07-06 14:23:00,
2013-07-06 10:28:00,80.2,62.1,29.20,SW,225,0.0,0.0,54,0.00,,---,0.00,VWS V13.01,2013-07-06 14:28:00,
2013-07-06 10:33:00,80.6,62.4,29.20,SW,225,0.0,0.0,54,0.00,,---,0.00,VWS V13.01,2013-07-06 14:33:00,
2013-07-06 10:38:00,81.0,61.7,29.20,SW,225,0.0,0.0,52,0.00,,---,0.00,VWS V13.01,2013-07-06 14:38:00,
2013-07-06 10:43:00,81.0,61.7,29.20,SW,225,0.0,0.0,52,0.00,,---,0.00,VWS V13.01,2013-07-06 14:43:00,
2013-07-06 10:48:00,81.1,61.3,29.20,SW,225,0.0,0.0,51,0.00,,---,0.00,VWS V13.01,2013-07-06 14:48:00,
2013-07-06 10:53:00,81.3,60.3,29.20,SW,225,0.0,0.0,49,0.00,,---,0.00,VWS V13.01,2013-07-06 14:53:00,
2013-07-06 10:58:00,81.5,60.5,29.20,NW,315,0.0,0.0,49,0.00,,---,0.00,VWS V13.01,2013-07-06 14:58:00,
2013-07-06 11:03:00,81.7,58.9,29.20,NW,315,0.0,0.0,46,0.00,,---,0.00,VWS V13.01,2013-07-06 15:03:00,
2013-07-06 11:06:00,81.7,58.9,29.20,SSW,202,0.0,0.0,46,0.00,,---,0.00,VWS V13.01,2013-07-06 15:06:00,
2013-07-06 11:11:00,81.7,57.7,29.20,SSW,202,0.0,0.0,44,0.00,,---,0.00,VWS V13.01,2013-07-06 15:11:00,
2013-07-06 11:16:00,82.2,56.9,29.20,SSW,202,0.0,0.0,42,0.00,,---,0.00,VWS V13.01,2013-07-06 15:16:00,
2013-07-06 11:21:00,82.4,57.7,29.20,SSW,202,0.0,0.0,43,0.00,,---,0.00,VWS V13.01,2013-07-06 15:21:00,
2013-07-06 11:26:00,82.6,57.8,29.20,SSW,202,0.0,0.0,43,0.00,,---,0.00,VWS V13.01,2013-07-06 15:26:00,
2013-07-06 11:31:00,82.8,57.3,29.20,SSW,202,0.0,0.0,42,0.00,,---,0.00,VWS V13.01,2013-07-06 15:31:00,
2013-07-06 11:36:00,82.9,56.2,29.20,SSW,202,0.0,0.0,40,0.00,,---,0.00,VWS V13.01,2013-07-06 15:36:00,
2013-07-06 11:41:00,83.1,56.3,29.20,SSW,202,0.0,0.0,40,0.00,,---,0.00,VWS V13.01,2013-07-06 15:41:00,
2013-07-06 11:47:00,83.5,55.9,29.20,SSW,202,0.0,0.0,39,0.00,,---,0.00,VWS V13.01,2013-07-06 15:47:00,
2013-07-06 11:52:00,83.8,55.5,29.20,SSW,202,0.0,0.0,38,0.00,,---,0.00,VWS V13.01,2013-07-06 15:52:00,
2013-07-06 11:57:00,84.2,55.1,29.20,SSW,202,0.0,0.0,37,0.00,,---,0.00,VWS V13.01,2013-07-06 15:57:00,
2013-07-06 12:02:00,84.4,54.5,29.20,SSW,202,0.0,0.0,36,0.00,,---,0.00,VWS V13.01,2013-07-06 16:02:00,
2013-07-06 12:08:00,84.7,54.9,29.20,SSW,202,0.0,0.0,36,0.00,,---,0.00,VWS V13.01,2013-07-06 16:08:00,
2013-07-06 12:14:00,84.7,54.9,29.20,SSW,202,0.0,0.0,36,0.00,,---,0.00,VWS V13.01,2013-07-06 16:14:00,
2013-07-06 12:22:00,86.0,51.9,29.17,SSW,202,0.0,0.0,31,0.00,,---,0.00,VWS V13.01,2013-07-06 16:22:00,
2013-07-06 12:28:00,86.4,52.2,29.17,SSW,202,0.0,0.0,31,0.00,,---,0.00,VWS V13.01,2013-07-06 16:28:00,
2013-07-06 12:34:00,86.5,51.5,29.17,SSW,202,0.0,0.0,30,0.00,,---,0.00,VWS V13.01,2013-07-06 16:34:00,
2013-07-06 12:40:00,86.7,51.6,29.17,SSW,202,0.0,0.0,30,0.00,,---,0.00,VWS V13.01,2013-07-06 16:40:00,
2013-07-06 12:46:00,87.1,52.8,29.17,SSW,202,0.0,0.0,31,0.00,,---,0.00,VWS V13.01,2013-07-06 16:46:00,
2013-07-06 12:51:00,87.1,51.0,29.17,SSW,202,0.0,0.0,29,0.00,,---,0.00,VWS V13.01,2013-07-06 16:51:00,
2013-07-06 12:57:00,86.9,51.8,29.17,SSW,202,0.0,0.0,30,0.00,,---,0.00,VWS V13.01,2013-07-06 16:57:00,
2013-07-06 13:02:00,87.1,51.9,29.17,SSW,202,0.0,0.0,30,0.00,,---,0.00,VWS V13.01,2013-07-06 17:02:00,
2013-07-06 13:09:00,87.3,51.2,29.17,SSW,202,0.0,0.0,29,0.00,,---,0.00,VWS V13.01,2013-07-06 17:09:00,
2013-07-06 13:14:00,87.6,51.5,29.17,SSW,202,0.0,0.0,29,0.00,,---,0.00,VWS V13.01,2013-07-06 17:14:00,
2013-07-06 13:20:00,88.2,51.9,29.17,SSW,202,0.0,0.0,29,0.00,,---,0.00,VWS V13.01,2013-07-06 17:20:00,
2013-07-06 13:26:00,88.7,51.4,29.17,SSW,202,0.0,0.0,28,0.00,,---,0.00,VWS V13.01,2013-07-06 17:26:00,
2013-07-06 13:33:00,89.8,52.4,29.14,SSW,202,0.0,0.0,28,0.00,,---,0.00,VWS V13.01,2013-07-06 17:33:00,
2013-07-06 13:38:00,90.1,49.6,29.14,WSW,248,0.0,0.0,25,0.00,,---,0.00,VWS V13.01,2013-07-06 17:38:00,
2013-07-06 13:45:00,89.8,51.4,29.14,WSW,248,0.0,0.0,27,0.00,,---,0.00,VWS V13.01,2013-07-06 17:45:00,
2013-07-06 13:51:00,90.0,51.5,29.14,SW,225,0.0,0.0,27,0.00,,---,0.00,VWS V13.01,2013-07-06 17:51:00,
2013-07-06 13:57:00,90.7,50.1,29.14,SW,225,0.0,0.0,25,0.00,,---,0.00,VWS V13.01,2013-07-06 17:57:00,
2013-07-06 14:03:00,91.4,48.4,29.14,SSW,202,0.0,0.0,23,0.00,,---,0.00,VWS V13.01,2013-07-06 18:03:00,
2013-07-06 14:09:00,92.8,48.4,29.14,SSW,202,0.0,0.0,22,0.00,,---,0.00,VWS V13.01,2013-07-06 18:09:00,
2013-07-06 14:15:00,93.4,46.4,29.14,SSW,202,0.0,0.0,20,0.00,,---,0.00,VWS V13.01,2013-07-06 18:15:00,
2013-07-06 14:21:00,94.6,47.4,29.14,SSW,202,0.0,0.0,20,0.00,,---,0.00,VWS V13.01,2013-07-06 18:21:00,
2013-07-06 14:26:00,95.4,45.2,29.14,SSW,202,0.0,0.0,18,0.00,,---,0.00,VWS V13.01,2013-07-06 18:26:00,
2013-07-06 14:32:00,96.6,46.2,29.14,SSW,202,0.0,0.0,18,0.00,,---,0.00,VWS V13.01,2013-07-06 18:32:00,
2013-07-06 14:38:00,97.0,45.0,29.14,SSW,202,0.0,0.0,17,0.00,,---,0.00,VWS V13.01,2013-07-06 18:38:00,
2013-07-06 14:45:00,96.4,44.6,29.14,West,270,0.0,0.0,17,0.00,,---,0.00,VWS V13.01,2013-07-06 18:45:00,
2013-07-06 14:51:00,93.7,43.9,29.14,West,270,0.0,0.0,18,0.00,,---,0.00,VWS V13.01,2013-07-06 18:51:00,
2013-07-06 14:57:00,95.2,43.5,29.14,West,270,0.0,0.0,17,0.00,,---,0.00,VWS V13.01,2013-07-06 18:57:00,
2013-07-06 15:02:00,96.6,44.7,29.12,West,270,0.0,0.0,17,0.00,,---,0.00,VWS V13.01,2013-07-06 19:02:00,
2013-07-06 15:07:00,97.2,45.1,29.12,West,270,0.0,0.0,17,0.00,,---,0.00,VWS V13.01,2013-07-06 19:07:00,
2013-07-06 15:12:00,98.2,44.4,29.12,West,270,0.0,0.0,16,0.00,,---,0.00,VWS V13.01,2013-07-06 19:12:00,
2013-07-06 15:18:00,96.6,43.1,29.12,SSW,202,0.0,0.0,16,0.00,,---,0.00,VWS V13.01,2013-07-06 19:18:00,
2013-07-06 15:24:00,95.2,43.5,29.12,SSW,202,0.0,0.0,17,0.00,,---,0.00,VWS V13.01,2013-07-06 19:24:00,
2013-07-06 15:29:00,97.2,43.5,29.12,SSW,202,0.0,0.0,16,0.00,,---,0.00,VWS V13.01,2013-07-06 19:29:00,
2013-07-06 15:34:00,98.8,44.8,29.12,SSW,202,0.0,0.0,16,0.00,,---,0.00,VWS V13.01,2013-07-06 19:34:00,
2013-07-06 15:40:00,99.3,45.3,29.12,SSW,202,0.0,0.0,16,0.00,,---,0.00,VWS V13.01,2013-07-06 19:40:00,
2013-07-06 15:45:00,99.0,45.0,29.12,SSW,202,0.0,0.0,16,0.00,,---,0.00,VWS V13.01,2013-07-06 19:45:00,
2013-07-06 15:51:00,97.0,43.4,29.12,SSW,202,0.0,0.0,16,0.00,,---,0.00,VWS V13.01,2013-07-06 19:51:00,
2013-07-06 15:57:00,96.6,44.7,29.12,SSW,202,0.0,0.0,17,0.00,,---,0.00,VWS V13.01,2013-07-06 19:57:00,
2013-07-06 16:02:00,96.6,44.7,29.12,SSW,202,0.0,0.0,17,0.00,,---,0.00,VWS V13.01,2013-07-06 20:02:00,
2013-07-06 16:07:00,96.8,43.3,29.12,SSW,202,0.0,0.0,16,0.00,,---,0.00,VWS V13.01,2013-07-06 20:07:00,
2013-07-06 16:14:00,97.3,43.7,29.12,SSW,202,0.0,0.0,16,0.00,,---,0.00,VWS V13.01,2013-07-06 20:14:00,
2013-07-06 16:20:00,97.5,43.8,29.12,SSW,202,0.0,0.0,16,0.00,,---,0.00,VWS V13.01,2013-07-06 20:20:00,
2013-07-06 16:25:00,97.2,43.5,29.12,SSW,202,0.0,0.0,16,0.00,,---,0.00,VWS V13.01,2013-07-06 20:25:00,
2013-07-06 16:31:00,96.6,44.7,29.12,SSW,202,0.0,0.0,17,0.00,,---,0.00,VWS V13.01,2013-07-06 20:31:00,
2013-07-06 16:37:00,94.8,44.8,29.12,SSW,202,0.0,0.0,18,0.00,,---,0.00,VWS V13.01,2013-07-06 20:37:00,
2013-07-06 16:46:00,95.9,44.1,29.12,SSW,202,0.0,0.0,17,0.00,,---,0.00,VWS V13.01,2013-07-06 20:46:00,
2013-07-06 16:53:00,95.7,44.0,29.09,SSW,202,0.0,0.0,17,0.00,,---,0.00,VWS V13.01,2013-07-06 20:53:00,
2013-07-06 16:59:00,95.4,43.7,29.09,SSW,202,0.0,0.0,17,0.00,,---,0.00,VWS V13.01,2013-07-06 20:59:00,
2013-07-06 17:04:00,96.6,44.7,29.09,SSW,202,0.0,0.0,17,0.00,,---,0.00,VWS V13.01,2013-07-06 21:04:00,
2013-07-06 17:11:00,98.1,45.9,29.09,SSW,202,0.0,0.0,17,0.00,,---,0.00,VWS V13.01,2013-07-06 21:11:00,
2013-07-06 17:17:00,98.1,44.3,29.09,SSW,202,0.0,0.0,16,0.00,,---,0.00,VWS V13.01,2013-07-06 21:17:00,
2013-07-06 17:22:00,97.2,45.1,29.09,SSW,202,0.0,0.0,17,0.00,,---,0.00,VWS V13.01,2013-07-06 21:22:00,
2013-07-06 17:27:00,95.9,44.1,29.09,SSW,202,0.0,0.0,17,0.00,,---,0.00,VWS V13.01,2013-07-06 21:27:00,
2013-07-06 17:34:00,93.7,43.9,29.09,SSW,202,0.0,0.0,18,0.00,,---,0.00,VWS V13.01,2013-07-06 21:34:00,
2013-07-06 17:41:00,91.8,45.0,29.09,SSW,202,0.0,0.0,20,0.00,,---,0.00,VWS V13.01,2013-07-06 21:41:00,
2013-07-06 17:46:00,90.9,46.8,29.09,SSW,202,0.0,0.0,22,0.00,,---,0.00,VWS V13.01,2013-07-06 21:46:00,
2013-07-06 17:52:00,89.8,48.2,29.09,SSW,202,0.0,0.0,24,0.00,,---,0.00,VWS V13.01,2013-07-06 21:52:00,
2013-07-06 17:57:00,89.6,50.2,29.09,SSW,202,0.0,0.0,26,0.00,,---,0.00,VWS V13.01,2013-07-06 21:57:00,
2013-07-06 18:02:00,89.6,49.2,29.09,SSW,202,0.0,0.0,25,0.00,,---,0.00,VWS V13.01,2013-07-06 22:02:00,
2013-07-06 18:07:00,89.2,51.9,29.09,SSW,202,0.0,0.0,28,0.00,,---,0.00,VWS V13.01,2013-07-06 22:07:00,
2013-07-06 18:13:00,88.9,51.6,29.09,SSW,202,0.0,0.0,28,0.00,,---,0.00,VWS V13.01,2013-07-06 22:13:00,
2013-07-06 18:20:00,88.9,51.6,29.09,SSW,202,0.0,0.0,28,0.00,,---,0.00,VWS V13.01,2013-07-06 22:20:00,
2013-07-06 18:25:00,88.9,51.6,29.09,SSW,202,0.0,0.0,28,0.00,,---,0.00,VWS V13.01,2013-07-06 22:25:00,
2013-07-06 18:32:00,86.5,53.2,29.09,SSW,202,0.0,0.0,32,0.00,,---,0.00,VWS V13.01,2013-07-06 22:32:00,
2013-07-06 18:37:00,86.5,53.2,29.09,SSW,202,0.0,0.0,32,0.00,,---,0.00,VWS V13.01,2013-07-06 22:37:00,
2013-07-06 18:45:00,84.9,54.2,29.09,SSW,202,0.0,0.0,35,0.00,,---,0.00,VWS V13.01,2013-07-06 22:45:00,
2013-07-06 18:50:00,84.9,55.0,29.09,SSW,202,0.0,0.0,36,0.00,,---,0.00,VWS V13.01,2013-07-06 22:50:00,
2013-07-06 18:55:00,84.7,55.6,29.09,SSW,202,0.0,0.0,37,0.00,,---,0.00,VWS V13.01,2013-07-06 22:55:00,
2013-07-06 19:00:00,84.6,56.2,29.09,SSW,202,0.0,0.0,38,0.00,,---,0.00,VWS V13.01,2013-07-06 23:00:00,
2013-07-06 19:06:00,83.7,56.8,29.09,SSW,202,0.0,0.0,40,0.00,,---,0.00,VWS V13.01,2013-07-06 23:06:00,
2013-07-06 19:11:00,83.3,57.2,29.09,SSW,202,0.0,0.0,41,0.00,,---,0.00,VWS V13.01,2013-07-06 23:11:00,
2013-07-06 19:16:00,83.1,57.0,29.09,SSW,202,0.0,0.0,41,0.00,,---,0.00,VWS V13.01,2013-07-06 23:16:00,
2013-07-06 19:21:00,83.1,57.7,29.09,SSW,202,0.0,0.0,42,0.00,,---,0.00,VWS V13.01,2013-07-06 23:21:00,
2013-07-06 19:28:00,82.6,57.8,29.09,SSW,202,0.0,0.0,43,0.00,,---,0.00,VWS V13.01,2013-07-06 23:28:00,
2013-07-06 19:34:00,82.0,58.6,29.09,SSW,202,0.0,0.0,45,0.00,,---,0.00,VWS V13.01,2013-07-06 23:34:00,
2013-07-06 19:39:00,81.7,58.9,29.09,SSW,202,0.0,0.0,46,0.00,,---,0.00,VWS V13.01,2013-07-06 23:39:00,
2013-07-06 19:45:00,81.3,59.8,29.09,SSW,202,0.0,0.0,48,0.00,,---,0.00,VWS V13.01,2013-07-06 23:45:00,
2013-07-06 19:51:00,81.3,60.3,29.09,SSW,202,0.0,0.0,49,0.00,,---,0.00,VWS V13.01,2013-07-06 23:51:00,
2013-07-06 19:56:00,81.5,60.5,29.09,SSW,202,0.0,0.0,49,0.00,,---,0.00,VWS V13.01,2013-07-06 23:56:00,
2013-07-06 20:02:00,81.5,59.9,29.09,SSW,202,0.0,0.0,48,0.00,,---,0.00,VWS V13.01,2013-07-07 00:02:00,
2013-07-06 20:09:00,81.3,59.8,29.09,SSW,202,0.0,0.0,48,0.00,,---,0.00,VWS V13.01,2013-07-07 00:09:00,
2013-07-06 20:14:00,81.1,60.2,29.09,SSW,202,0.0,0.0,49,0.00,,---,0.00,VWS V13.01,2013-07-07 00:14:00,
2013-07-06 20:19:00,81.0,60.6,29.09,SSW,202,0.0,0.0,50,0.00,,---,0.00,VWS V13.01,2013-07-07 00:19:00,
2013-07-06 20:25:00,80.8,61.0,29.09,SSW,202,0.0,0.0,51,0.00,,---,0.00,VWS V13.01,2013-07-07 00:25:00,
2013-07-06 20:31:00,80.6,60.8,29.09,SSW,202,0.0,0.0,51,0.00,,---,0.00,VWS V13.01,2013-07-07 00:31:00,
2013-07-06 20:36:00,80.2,61.6,29.09,SSW,202,0.0,0.0,53,0.00,,---,0.00,VWS V13.01,2013-07-07 00:36:00,
2013-07-06 20:41:00,80.2,61.6,29.09,SSW,202,0.0,0.0,53,0.00,,---,0.00,VWS V13.01,2013-07-07 00:41:00,
2013-07-06 20:47:00,80.1,61.4,29.09,SSW,202,0.0,0.0,53,0.00,,---,0.00,VWS V13.01,2013-07-07 00:47:00,
2013-07-06 20:52:00,79.7,60.5,29.09,SSW,202,0.0,0.0,52,0.00,,---,0.00,VWS V13.01,2013-07-07 00:52:00,
2013-07-06 20:58:00,79.7,60.5,29.09,SSW,202,0.0,0.0,52,0.00,,---,0.00,VWS V13.01,2013-07-07 00:58:00,
2013-07-06 21:03:00,79.7,61.1,29.09,SSW,202,0.0,0.0,53,0.00,,---,0.00,VWS V13.01,2013-07-07 01:03:00,
2013-07-06 21:08:00,79.3,59.7,29.09,SSW,202,0.0,0.0,51,0.00,,---,0.00,VWS V13.01,2013-07-07 01:08:00,
2013-07-06 21:14:00,79.3,59.7,29.09,SSW,202,0.0,0.0,51,0.00,,---,0.00,VWS V13.01,2013-07-07 01:14:00,
2013-07-06 21:20:00,79.2,59.5,29.09,SSW,202,0.0,0.0,51,0.00,,---,0.00,VWS V13.01,2013-07-07 01:20:00,
2013-07-06 21:25:00,79.0,59.3,29.09,SSW,202,0.0,0.0,51,0.00,,---,0.00,VWS V13.01,2013-07-07 01:25:00,
2013-07-06 21:31:00,79.0,58.8,29.09,SSW,202,0.0,0.0,50,0.00,,---,0.00,VWS V13.01,2013-07-07 01:31:00,
2013-07-06 21:36:00,78.8,59.2,29.09,SSW,202,0.0,0.0,51,0.00,,---,0.00,VWS V13.01,2013-07-07 01:36:00,
2013-07-06 21:42:00,78.6,59.0,29.09,SSW,202,0.0,0.0,51,0.00,,---,0.00,VWS V13.01,2013-07-07 01:42:00,
2013-07-06 21:47:00,78.4,58.8,29.12,SSW,202,0.0,0.0,51,0.00,,---,0.00,VWS V13.01,2013-07-07 01:47:00,
2013-07-06 21:52:00,78.4,58.8,29.12,SSW,202,0.0,0.0,51,0.00,,---,0.00,VWS V13.01,2013-07-07 01:52:00,
2013-07-06 22:01:00,78.3,58.7,29.12,SSW,202,0.0,0.0,51,0.00,,---,0.00,VWS V13.01,2013-07-07 02:01:00,
2013-07-06 22:08:00,78.1,58.5,29.12,SSW,202,0.0,0.0,51,0.00,,---,0.00,VWS V13.01,2013-07-07 02:08:00,
2013-07-06 22:13:00,77.7,58.7,29.12,SSW,202,0.0,0.0,52,0.00,,---,0.00,VWS V13.01,2013-07-07 02:13:00,
2013-07-06 22:19:00,77.5,58.5,29.12,SSW,202,0.0,0.0,52,0.00,,---,0.00,VWS V13.01,2013-07-07 02:19:00,
2013-07-06 22:24:00,77.4,58.4,29.12,SSW,202,0.0,0.0,52,0.00,,---,0.00,VWS V13.01,2013-07-07 02:24:00,
2013-07-06 22:31:00,77.2,58.2,29.12,SSW,202,0.0,0.0,52,0.00,,---,0.00,VWS V13.01,2013-07-07 02:31:00,
2013-07-06 22:36:00,77.0,58.0,29.12,SSW,202,0.0,0.0,52,0.00,,---,0.00,VWS V13.01,2013-07-07 02:36:00,
2013-07-06 22:43:00,77.0,58.0,29.12,SSW,202,0.0,0.0,52,0.00,,---,0.00,VWS V13.01,2013-07-07 02:43:00,
2013-07-06 22:49:00,76.8,58.4,29.12,SSW,202,0.0,0.0,53,0.00,,---,0.00,VWS V13.01,2013-07-07 02:49:00,
2013-07-06 22:55:00,76.5,57.5,29.12,SSW,202,0.0,0.0,52,0.00,,---,0.00,VWS V13.01,2013-07-07 02:55:00,
2013-07-06 23:01:00,76.5,58.1,29.12,SSW,202,0.0,0.0,53,0.00,,---,0.00,VWS V13.01,2013-07-07 03:01:00,
2013-07-06 23:07:00,76.3,57.9,29.12,SSW,202,0.0,0.0,53,0.00,,---,0.00,VWS V13.01,2013-07-07 03:07:00,
2013-07-06 23:14:00,76.1,58.3,29.12,SSW,202,0.0,0.0,54,0.00,,---,0.00,VWS V13.01,2013-07-07 03:14:00,
2013-07-06 23:21:00,75.9,58.1,29.12,SSW,202,0.0,0.0,54,0.00,,---,0.00,VWS V13.01,2013-07-07 03:21:00,
2013-07-06 23:28:00,75.9,58.1,29.12,SSW,202,0.0,0.0,54,0.00,,---,0.00,VWS V13.01,2013-07-07 03:28:00,
2013-07-06 23:33:00,75.7,57.4,29.12,SSW,202,0.0,0.0,53,0.00,,---,0.00,VWS V13.01,2013-07-07 03:33:00,
2013-07-06 23:39:00,75.7,57.4,29.12,SSW,202,0.0,0.0,53,0.00,,---,0.00,VWS V13.01,2013-07-07 03:39:00,
2013-07-06 23:45:00,75.6,57.2,29.12,SSW,202,0.0,0.0,53,0.00,,---,0.00,VWS V13.01,2013-07-07 03:45:00,
2013-07-06 23:55:00,75.7,57.4,29.12,SSW,202,0.0,0.0,53,0.00,,---,0.00,VWS V13.01,2013-07-07 03:55:00,